Weather History for KDIJ - February, 2013

Change the Weather History Date:

Monday, February 18, 2013

  Actual Average (KRXE) Record (KRXE)
Temperature  
Mean Temperature 14 °F 23 °F  
Max Temperature 27 °F 33 °F 40 °F (2004)
Min Temperature 1 °F 13 °F -8 °F (2006)
Degree Days  
Heating Degree Days 51 42  
Month to date heating degree days 794  
Since 1 July heating degree days 5571  
Cooling Degree Days 0 0  
Month to date cooling degree days 0  
Year to date cooling degree days 0  
Moisture  
Dew Point 8 °F    
Average Humidity 72    
Maximum Humidity 84    
Minimum Humidity 49    
Precipitation  
Precipitation 0.00 in 0.03 in - ()
Month to date precipitation 0.53  
Year to date precipitation 1.27  
Sea Level Pressure  
Sea Level Pressure 30.10 in    
Wind  
Wind Speed 4 mph (ESE)    
Max Wind Speed 7 mph    
Max Gust Speed -    
Visibility 10 miles    
Events Snow    
T = Trace of Precipitation, MM = Missing Value Source: NWS Daily Summary

Daily Weather History Graph

Daily Weather History Graph

Search for Another Location

Airport or City:

Trip Planner

Search our weather history database for the weather conditions in past years. The results will help you decide how hot, cold, wet, or windy it might be!

Date:

Astronomy

Feb. 18, 2013 Rise Set
Actual Time 7:18 AM MST 5:59 PM MST
Civil Twilight 6:48 AM MST 6:28 PM MST
Nautical Twilight 6:15 AM MST 7:01 PM MST
Astronomical Twilight 5:42 AM MST 7:35 PM MST
Moon 11:41 AM MST (2/18) 2:06 AM MST (2/18)
Length of Visible Light 11h 39m
Length of Day
10h 40m
First Quarter, 59% of the Moon is Illuminated
Feb 18
First Quarter
Feb 25
Full
Mar 4
Last Quarter
Mar 11
New
Mar 19
First Quarter

Hourly Weather History & Observations

Time (MST) Temp. Windchill Dew Point Humidity Pressure Visibility Wind Dir Wind Speed Gust Speed Precip Events Conditions
12:56 AM 18.1 °F 12.9 °F 12.0 °F 77% 30.05 in 9.0 mi South 3.5 mph - 0.00 in Snow Light Snow
1:26 AM 19.4 °F 11.5 °F 12.2 °F 74% 30.00 in 5.0 mi West 5.8 mph - 0.00 in Snow Light Snow
1:56 AM 17.1 °F 8.7 °F 13.1 °F 84% 30.08 in 10.0 mi ESE 5.8 mph - 0.00 in Snow Light Snow
2:56 AM 18.1 °F 11.3 °F 13.1 °F 81% 30.06 in 10.0 mi SE 4.6 mph - 0.00 in   Overcast
4:56 AM 16.2 °F 7.6 °F 12.0 °F 84% 30.09 in 10.0 mi SSE 5.8 mph - N/A   Overcast
5:56 AM 18.1 °F 11.3 °F 13.1 °F 81% 30.08 in 10.0 mi South 4.6 mph - N/A   Overcast
6:56 AM 17.1 °F 10.0 °F 12.0 °F 81% 30.12 in 10.0 mi South 4.6 mph - N/A   Overcast
7:56 AM 14.0 °F 8.2 °F 9.1 °F 81% 30.14 in 10.0 mi ESE 3.5 mph - N/A   Overcast
8:56 AM 15.1 °F - 9.1 °F 77% 30.14 in 10.0 mi Calm Calm - N/A   Overcast
9:56 AM 15.1 °F 9.4 °F 8.1 °F 74% 30.15 in 10.0 mi NE 3.5 mph - N/A   Overcast
10:56 AM 21.0 °F 16.2 °F 10.0 °F 63% 30.14 in 10.0 mi ENE 3.5 mph - N/A   Clear
11:56 AM 25.2 °F 20.9 °F 12.0 °F 58% 30.12 in 10.0 mi ENE 3.5 mph - N/A   Clear
12:56 PM 27.1 °F - 11.1 °F 51% 30.10 in 10.0 mi Calm Calm - N/A   Clear
1:56 PM 27.1 °F 20.7 °F 10.0 °F 49% 30.09 in 10.0 mi SE 5.8 mph - N/A   Mostly Cloudy
2:56 PM 25.2 °F 17.3 °F 11.1 °F 55% 30.09 in 10.0 mi SSE 6.9 mph - N/A   Overcast
4:56 PM 21.0 °F 16.2 °F 10.0 °F 63% 30.09 in 10.0 mi WNW 3.5 mph - N/A   Partly Cloudy
5:56 PM 15.1 °F 9.4 °F 6.1 °F 68% 30.11 in 10.0 mi NNE 3.5 mph - N/A   Clear
7:56 PM 8.1 °F -3.2 °F 1.0 °F 73% 30.14 in 10.0 mi East 6.9 mph - N/A   Clear
8:56 PM 10.0 °F - 4.1 °F 77% 30.11 in 10.0 mi Calm Calm - N/A   Clear
9:56 PM 5.0 °F - -0.9 °F 76% 30.13 in 10.0 mi Calm Calm - N/A   Clear
10:56 PM 1.0 °F -10.3 °F -4.0 °F 79% 30.09 in 10.0 mi NE 5.8 mph - N/A   Clear
11:56 PM 4.1 °F - -1.8 °F 76% 30.03 in 10.0 mi Calm Calm - N/A   Clear